Date,TemperatureHighF,TemperatureAvgF,TemperatureLowF,DewpointHighF,DewpointAvgF,DewpointLowF,HumidityHigh,HumidityAvg,HumidityLow,PressureMaxIn,PressureMinIn,WindSpeedMaxMPH,WindSpeedAvgMPH,GustSpeedMaxMPH,PrecipitationSumIn
2013-11-1,83,72,65,73,67,64,98,86,67,0.00,40.00,4,2,13,0.01
2013-11-2,74,66,53,71,59,47,98,83,39,0.00,40.00,5,2,17,1.03
2013-11-3,69,55,45,51,44,-100,98,74,37,0.00,40.00,6,2,14,0.01
2013-11-4,68,57,45,56,49,44,98,75,56,0.00,40.00,11,5,20,0.01
2013-11-5,66,59,52,61,51,46,96,78,58,0.00,40.00,6,4,14,0.01
2013-11-6,77,67,60,66,63,58,98,88,68,0.00,40.00,6,3,13,0.01
2013-11-7,81,69,61,68,64,53,99,84,57,0.00,40.00,4,2,11,0.00
2013-11-8,66,55,42,53,40,33,95,62,31,0.00,40.00,7,3,17,0.00
2013-11-9,71,54,41,56,47,-100,96,81,58,0.00,40.00,7,2,15,0.00
2013-11-10,74,61,51,60,55,50,98,85,56,0.00,40.00,3,1,7,0.00
2013-11-11,73,60,45,59,53,44,98,82,51,0.00,40.00,7,3,14,0.00
2013-11-12,71,61,53,59,54,43,98,81,52,0.00,40.00,6,2,12,0.00
2013-11-13,57,45,32,43,28,17,89,55,25,0.00,40.00,9,5,17,0.00
2013-11-14,64,50,32,51,40,28,97,70,52,0.00,40.00,7,4,14,0.00
2013-11-15,63,58,51,62,56,50,99,97,89,0.00,40.00,4,2,12,0.07
2013-11-16,76,65,59,65,60,-100,99,87,62,0.00,40.00,6,3,11,0.01
2013-11-17,77,68,63,69,66,62,98,92,74,0.00,40.00,4,2,8,0.03
2013-11-18,78,72,66,72,70,65,99,93,80,0.00,40.00,4,3,9,0.02
2013-11-19,69,56,48,68,44,38,98,63,45,0.00,40.00,9,4,19,0.00
2013-11-20,61,57,50,54,51,45,85,80,75,0.00,40.00,7,5,17,0.00
2013-11-21,71,63,58,64,58,53,95,84,70,0.00,40.00,7,4,16,0.00
2013-11-22,80,68,60,68,64,59,98,87,60,0.00,40.00,5,2,13,0.08
2013-11-23,79,65,55,67,59,-100,98,86,58,0.00,40.00,6,2,12,0.06
2013-11-24,60,52,39,58,35,22,93,56,27,0.00,40.00,7,4,16,0.06
2013-11-25,56,46,35,50,38,25,93,74,59,0.00,40.00,9,4,16,0.00
2013-11-26,72,64,49,70,63,48,98,95,86,0.00,40.00,6,3,16,1.00
2013-11-27,70,52,35,69,47,31,98,83,62,0.00,40.00,11,6,25,0.33
2013-11-28,51,38,27,35,30,25,96,77,50,0.00,40.00,5,2,13,0.01
2013-11-29,63,44,32,43,36,31,97,77,41,0.00,40.00,6,2,11,0.00
2013-11-30,58,50,44,50,41,-100,85,73,60,0.00,40.00,6,3,12,0.00